Tracking 23610 objects as of 20-Sep-2021
HD Live streaming from Space Station
objects crossing your sky now

GSAT 1

Track GSAT 1 now!
GSAT 1 is classified as:


NORAD ID: 26745
Int'l Code: 2001-015A
Perigee: 33,856.4 km
Apogee: 35,797.2 km
Inclination: 12.2 °
Period: 1,387.0 minutes
Semi major axis: 41197 km
RCS: 3.1622 m2 (large)
Launch date: April 18, 2001
Source: India (IND)
Launch site: SRIHARIKOTA (SRI)
aabbcc
Your satellite tracking list
Your tracking list is empty




NASA's NSSDC Master Catalog

Two Line Element Set (TLE):
1 26745U 01015A   21262.75166675 -.00000248  00000-0  00000-0 0  9992
2 26745  12.1530  16.8651 0235546 248.8770 112.4912  1.03822541 77556
Source of the keplerian elements: AFSPC